South Lake Tahoe, CA

7:23 AM PST on January 24, 2017 (GMT -0800)
Lake Tahoe

Weather History for KTVL - December, 2013

Change the Weather History Date:

Wednesday, December 11, 2013

  Actual Average Record
Temperature  
Mean Temperature 25 °F 30 °F  
Max Temperature 44 °F 43 °F 59 °F (1990)
Min Temperature 6 °F 17 °F -19 °F (1972)
Degree Days  
Heating Degree Days 40 35  
Month to date heating degree days 476 376  
Since 1 July heating degree days 2305 2469  
Cooling Degree Days 0 0  
Month to date cooling degree days 0 0  
Year to date cooling degree days 104 31  
Moisture  
Dew Point 12 °F    
Average Humidity 59    
Maximum Humidity 84    
Minimum Humidity 33    
Precipitation  
Precipitation 0.00 in - 1.52 in (1937)
Month to date precipitation 0.46  
Year to date precipitation 8.41  
Sea Level Pressure  
Sea Level Pressure 30.35 in    
Wind  
Wind Speed 2 mph (South)    
Max Wind Speed 8 mph    
Max Gust Speed 10 mph    
T = Trace of Precipitation, MM = Missing Value Source: NWS Daily Summary

Daily Weather History Graph

Daily Weather History Graph

Search for Another Location

Airport or City:

Trip Planner

Search our weather history database for the weather conditions in past years. The results will help you decide how hot, cold, wet, or windy it might be!

Date:

Astronomy

Dec. 11, 2013 Rise Set
Actual Time 7:08 AM PST 4:38 PM PST
Civil Twilight 6:38 AM PST 5:08 PM PST
Nautical Twilight 6:05 AM PST 5:41 PM PST
Astronomical Twilight 5:33 AM PST 6:13 PM PST
Moon 1:12 PM PST (12/11) 1:37 AM PST (12/11)
Length of Visible Light 10h 29m
Length of Day
9h 29m
Waxing Gibbous, 72% of the Moon is Illuminated
Dec 11
Waxing Gibbous
Dec 17
Full
Dec 25
Last Quarter
Jan 1
New
Jan 7
First Quarter

Hourly Weather History & Observations

Time (PST) Temp. Windchill Dew Point Humidity Pressure Visibility Wind Dir Wind Speed Gust Speed Precip Events Conditions
12:53 AM 18.0 °F 11.1 °F 12.0 °F 78% 30.25 in - South 4.6 mph - N/A   Clear
1:53 AM 16.0 °F - 10.9 °F 81% 30.26 in - Calm Calm - N/A   Clear
2:53 AM 12.9 °F - 7.0 °F 77% 30.30 in - Calm Calm - N/A   Clear
3:53 AM 12.0 °F 5.9 °F 6.1 °F 77% 30.32 in - SW 3.5 mph - N/A   Clear
4:53 AM 9.0 °F 2.4 °F 3.0 °F 77% 30.35 in - South 3.5 mph - N/A   Clear
5:53 AM 8.1 °F 1.4 °F 1.9 °F 76% 30.38 in - SSW 3.5 mph - N/A   Clear
6:53 AM 7.0 °F - -0.0 °F 73% 30.38 in - Calm Calm - N/A   Clear
7:53 AM 7.0 °F - -0.0 °F 73% 30.40 in - Calm Calm - N/A   Clear
8:53 AM 14.0 °F 8.2 °F 8.1 °F 77% 30.38 in - South 3.5 mph - N/A   Clear
9:53 AM 25.0 °F 19.3 °F 15.1 °F 66% 30.36 in - SSW 4.6 mph - N/A   Clear
10:53 AM 35.1 °F - 19.0 °F 52% 30.31 in - Calm Calm - N/A   Clear
11:53 AM 42.1 °F 40.2 °F 16.0 °F 35% 30.28 in - NE 3.5 mph - N/A   Clear
12:53 PM 43.0 °F 40.3 °F 16.0 °F 34% 30.26 in - NNE 4.6 mph - N/A   Clear
1:53 PM 44.1 °F 41.5 °F 19.0 °F 37% 30.26 in - NNE 4.6 mph - N/A   Clear
2:53 PM 42.1 °F - 21.0 °F 43% 30.29 in - Calm Calm - N/A   Clear
3:53 PM 34.0 °F - 24.1 °F 67% 30.34 in - Calm Calm - N/A   Clear
4:53 PM 30.0 °F - 21.0 °F 69% 30.37 in - Calm Calm - N/A   Clear
5:53 PM 27.0 °F 23.0 °F 19.9 °F 75% 30.40 in - South 3.5 mph - N/A   Clear
6:53 PM 25.0 °F - 19.0 °F 78% 30.43 in - Calm Calm - N/A   Clear
7:53 PM 21.9 °F 17.2 °F 16.0 °F 78% 30.45 in - SSW 3.5 mph - N/A   Clear
8:53 PM 19.0 °F 12.3 °F 14.0 °F 81% 30.44 in - South 4.6 mph - N/A   Clear
9:53 PM 18.0 °F - 12.0 °F 78% 30.40 in - Calm Calm - N/A   Clear
10:53 PM 15.1 °F 7.7 °F 10.0 °F 80% 30.37 in - South 4.6 mph - N/A   Clear
11:53 PM 14.0 °F 8.2 °F 8.1 °F 77% 30.34 in - SSW 3.5 mph - N/A   Clear